星链-33932 (STARLINK-33932)

导读

STARLINK-33932是美国SpaceX星链星座的卫星,于2025年5月2日发射升空。作为星链低轨互联网星座的组成部分,该卫星承担着为全球范围用户提供高速宽带互联网接入服务的任务,尤其可为偏远地区、海上和空中等传统网络覆盖盲区提供连通服务,进一步扩充了星链星座的服务能力与覆盖范围。

基本信息
目录编号:
63775
目录名称:
STARLINK-33932
国际标识:
2025-091A
轨道中心:
EARTH
卫星名称:
星链-33932
卫星全名:
星链-33932 (STARLINK-33932)
卫星状态:
在轨 (已飞行490 天)
发射日期:
2025-05-02 UTC
国别 :
美国 (US)
星等 :
--
轨道信息
数据来源 国际轨道数据
星历时间: 2026-09-03T09:56:43+0800
1天前
查看轨道信息
半长轴: 6861.131km
偏心率: 0.0001582
轨道倾角: 43.002°
近地点辐角 286.485°
升交点赤经 130.566°
平近点角 73.582°
近地点: 481.908km
远地点: 484.08km
周期: 94.266分钟
每日圈数: 15.275987
详细信息
固有亮度:
5
最大亮度:
2.5
卫星平台:
Starlink V1.0
覆盖范围:
全球
运营商:
太空探索技术公司
运营商所在国:
美国
制造商(研发单位):
太空探索技术公司
制造商所在国:
美国
使用方式:
暂无
卫星简介
Starlink 计划是 SpaceX 推出的全球卫星互联网项目,通过发射低轨道卫星,为全球尤其是偏远地区提供高速、低延迟的互联网服务。自 2019 年起,Starlink 已部署数千颗卫星,旨在缩小全球数字鸿沟,推动互联网普及。该项目还为军事、航空等行业提供通信支持,带来广泛经济效益。
2D轨道图
3D轨道图
轨道高度分析图
轨道倾角分析图
轨道综合分析图
查看轨道综合分析图
交会数据列表
事件ID 空间交会对象 最接近时刻(TCA) 交会距离 交会风险概率(CRP) 交会风险指数(CRI) 操作
CDM_260906-163706-377506-703121
2026-09-06T
16:37:09+0000
0.074 km
近距离
9.662082E-4 高风险 0.95
CDM_260906-011405-777206-377521
2026-09-06T
01:14:33+0000
0.443 km
远距离
2.126481E-4 高风险 0.82
CDM_260905-105906-307406-377521
2026-09-05T
10:59:45+0000
0.719 km
远距离
5.048636E-5 中风险 0.69
CDM_260905-123306-307406-377521
2026-09-05T
12:33:54+0000
0.817 km
远距离
3.367861E-5 中风险 0.66
CDM_260906-155006-377506-703121
2026-09-06T
15:50:05+0000
0.638 km
远距离
2.524052E-5 中风险 0.63
CDM_260905-073505-561106-377521
2026-09-05T
07:35:41+0000
0.854 km
远距离
2.18239E-5 中风险 0.62
CDM_260905-020605-561106-377521
2026-09-05T
02:06:08+0000
1.004 km
极远距离
1.255706E-5 中风险 0.57
CDM_260906-070505-746506-377521
2026-09-06T
07:05:53+0000
1.101 km
极远距离
1.0812E-5 中风险 0.56
CDM_260905-003105-561106-377521
2026-09-05T
00:31:59+0000
1.126 km
极远距离
8.4532E-6 低风险 0.54
CDM_260906-141506-377506-703121
2026-09-06T
14:15:56+0000
1.203 km
极远距离
3.019863E-6 低风险 0.45